This demonstration page uses our WeatherBlox Daily Observations layout. Learn more.

Left ArrowRight Arrow

Hourly Observations for April 21, 2021

Temp ( °F °C ) Dew Point ( °F °C ) Humidity (%) Winds ( mph kmh ) Pressure ( in mb ) Visibility ( mi km ) Precip ( " mm )
12:59 am 00:59 Clear 61 16.1 41 5 48 48 S 7 11 29.93 1014 10 16 0.00 0.00
1:59 am 01:59 Clear 60 15.6 42 5.6 52 52 S 6 9 29.92 1013 10 16 0.00 0.00
2:59 am 02:59 Clear 57 13.9 44 6.7 62 62 S 5 7 29.89 1012 10 16 0.00 0.00
3:59 am 03:59 Clear 57 13.9 45 7.2 64 64 S 5 7 29.87 1012 10 16 0.00 0.00
4:59 am 04:59 Clear 59 15 48 8.9 67 67 SSW 10 17 29.85 1011 10 16 0.00 0.00
5:59 am 05:59 Clear 58 14.4 49 9.4 72 72 SSW 9 15 29.84 1011 10 16 0.00 0.00
6:59 am 06:59 Sunny 59 15 49 9.4 69 69 S 9 15 29.84 1010 10 16 0.00 0.00
7:59 am 07:59 Sunny 62 16.7 51 10.6 67 67 SSW 12 19 29.83 1010 10 16 0.00 0.00
8:59 am 08:59 Sunny 65 18.3 53 11.7 66 66 SW 9 15 29.80 1009 10 16 0.00 0.00
9:59 am 09:59 Sunny 70 21.1 56 13.3 61 61 SW 13 20 29.78 1009 10 16 0.00 0.00
10:59 am 10:59 Mostly Sunny 73 22.8 57 13.9 57 57 SW 10 17 29.75 1008 10 16 0.00 0.00
11:59 am 11:59 Mostly Cloudy 75 23.9 54 12.2 48 48 SW 14 22 29.72 1007 10 16 0.00 0.00
12:59 pm 12:59 Mostly Cloudy 75 23.9 50 10 41 41 SW 16 26 29.68 1005 10 16 0.00 0.00
1:23 pm 13:23 Mostly Cloudy with Thunderstorms 77 25 50 10 39 39 SW 17 28 29.66 1004 10 16 0.00 0.00
1:36 pm 13:36 Mostly Cloudy 75 23.9 49 9.4 40 40 SW 15 24 29.65 1004 10 16 0.00 0.00
1:59 pm 13:59 Mostly Cloudy 77 25 49 9.4 37 37 WSW 14 22 29.64 1004 10 16 0.00 0.00
2:36 pm 14:36 Windy with Storms Likely 70 21.1 51 10.6 51 51 WSW 20 31 29.64 1004 6 10 0.03 0.76
2:59 pm 14:59 Mostly Cloudy with Thunderstorms 73 22.8 55 12.8 53 53 WSW 15 24 29.63 1004 3 5 0.05 1.27
3:06 pm 15:06 Mostly Cloudy 73 22.8 53 11.7 50 50 W 12 19 29.63 1003 10 16 0.00 0.00
3:17 pm 15:17 Very Windy with Storms Likely 64 17.8 52 11.1 65 65 NW 43 69 29.68 1005 4 6 0.00 0.00
3:20 pm 15:20 Windy with Storms Likely 61 16.1 52 11.1 72 72 NW 33 54 29.68 1005 3 5 0.00 0.00
3:35 pm 15:35 Mostly Cloudy with Light Rain 63 17.2 54 12.2 73 73 NW 23 37 29.67 1005 6 10 0.01 0.25
3:59 pm 15:59 Mostly Cloudy with Mist and Fog 65 18.3 53 11.7 66 66 WNW 17 28 29.67 1005 6 10 0.01 0.25
4:59 pm 16:59 Mostly Cloudy 68 20 51 10.6 55 55 NW 17 28 29.69 1006 10 16 0.00 0.00
5:22 pm 17:22 Mostly Cloudy 61 16.1 50 10 67 67 N 16 26 29.71 1006 10 16 0.00 0.00
5:59 pm 17:59 Mostly Cloudy 61 16.1 46 7.8 58 58 N 14 22 29.73 1007 10 16 0.00 0.00
6:59 pm 18:59 Mostly Cloudy 60 15.6 43 6.1 53 53 N 17 28 29.75 1008 10 16 0.00 0.00
7:59 pm 19:59 Mostly Cloudy 56 13.3 35 1.7 46 46 N 22 35 29.80 1009 10 16 0.00 0.00
8:59 pm 20:59 Mostly Cloudy 53 11.7 31 -0.6 43 43 N 18 30 29.85 1011 10 16 0.00 0.00
9:59 pm 21:59 Mostly Cloudy 51 10.6 27 -2.8 39 39 N 21 33 29.91 1013 10 16 0.00 0.00
10:59 pm 22:59 Mostly Cloudy 50 10 26 -3.3 39 39 NNW 18 30 29.95 1014 10 16 0.00 0.00
11:59 pm 23:59 Mostly Cloudy 48 8.9 26 -3.3 42 42 NNW 23 37 29.98 1015 10 16 0.00 0.00

Powered by AerisWeather